Time,TemperatureF,DewpointF,PressureIn,WindDirection,WindDirectionDegrees,WindSpeedMPH,WindSpeedGustMPH,Humidity,HourlyPrecipIn,Conditions,Clouds,dailyrainin,SoftwareType,DateUTC
2013-02-01 00:00:00,24.8,10.8,29.61,South,180,0.0,12.1,55,0.00,,,0.75,WUHU21623XXSP,2013-02-01 05:00:00,
2013-02-01 00:01:00,24.8,10.8,29.61,South,180,0.0,12.1,55,0.00,,,0.75,WUHU21623XXSP,2013-02-01 05:01:00,
2013-02-01 00:02:00,24.8,10.8,29.61,South,180,0.0,12.1,55,0.00,,,0.75,WUHU21623XXSP,2013-02-01 05:02:00,
2013-02-01 00:03:00,24.8,10.8,29.61,South,180,0.0,8.3,55,0.00,,,0.75,WUHU21623XXSP,2013-02-01 05:03:00,
2013-02-01 00:08:00,24.6,10.3,29.62,SE,135,3.1,4.0,54,0.00,,,0.00,WUHU21623XXSP,2013-02-01 05:08:00,
2013-02-01 00:13:00,25.0,10.2,29.62,SSE,157,7.2,8.5,53,0.00,,,0.00,WUHU21623XXSP,2013-02-01 05:13:00,
2013-02-01 00:18:00,25.2,10.3,29.62,SSE,157,10.3,10.3,53,0.00,,,0.00,WUHU21623XXSP,2013-02-01 05:18:00,
2013-02-01 00:23:00,25.2,10.8,29.62,South,180,4.9,19.2,54,0.00,,,0.00,WUHU21623XXSP,2013-02-01 05:23:00,
2013-02-01 00:28:00,25.2,10.8,29.62,WSW,247,0.0,19.2,54,0.00,,,0.00,WUHU21623XXSP,2013-02-01 05:28:00,
2013-02-01 00:33:00,25.0,11.0,29.62,ENE,67,4.9,11.2,55,0.00,,,0.00,WUHU21623XXSP,2013-02-01 05:33:00,
2013-02-01 00:38:00,25.0,10.6,29.62,SSW,202,2.5,12.3,54,0.00,,,0.00,WUHU21623XXSP,2013-02-01 05:38:00,
2013-02-01 00:43:00,25.0,10.6,29.62,ESE,112,9.2,16.8,54,0.00,,,0.00,WUHU21623XXSP,2013-02-01 05:43:00,
2013-02-01 00:48:00,25.0,10.6,29.61,SSE,157,1.6,16.8,54,0.00,,,0.00,WUHU21623XXSP,2013-02-01 05:48:00,
2013-02-01 00:53:00,25.0,10.6,29.62,NW,315,1.8,19.5,54,0.00,,,0.00,WUHU21623XXSP,2013-02-01 05:53:00,
2013-02-01 00:58:00,25.0,10.6,29.62,SSW,202,0.0,19.7,54,0.00,,,0.00,WUHU21623XXSP,2013-02-01 05:58:00,
2013-02-01 01:03:00,25.0,10.6,29.62,SW,225,10.1,19.7,54,0.00,,,0.00,WUHU21623XXSP,2013-02-01 06:03:00,
2013-02-01 01:08:00,24.8,10.4,29.62,WSW,247,6.3,16.1,54,0.00,,,0.00,WUHU21623XXSP,2013-02-01 06:08:00,
2013-02-01 01:13:00,24.6,10.3,29.62,South,180,0.0,19.7,54,0.00,,,0.00,WUHU21623XXSP,2013-02-01 06:13:00,
2013-02-01 01:18:00,24.6,10.3,29.63,SSE,157,1.6,19.7,54,0.00,,,0.00,WUHU21623XXSP,2013-02-01 06:18:00,
2013-02-01 01:23:00,24.6,11.1,29.63,SSW,202,0.0,19.7,56,0.00,,,0.00,WUHU21623XXSP,2013-02-01 06:23:00,
2013-02-01 01:28:00,24.4,10.9,29.63,SE,135,12.3,22.4,56,0.00,,,0.00,WUHU21623XXSP,2013-02-01 06:28:00,
2013-02-01 01:33:00,24.4,11.3,29.63,West,270,0.0,22.4,57,0.00,,,0.00,WUHU21623XXSP,2013-02-01 06:33:00,
2013-02-01 01:38:00,24.4,12.1,29.64,SE,135,11.6,11.6,59,0.00,,,0.00,WUHU21623XXSP,2013-02-01 06:38:00,
2013-02-01 01:43:00,24.1,12.9,29.63,SE,135,5.1,19.0,62,0.00,,,0.00,WUHU21623XXSP,2013-02-01 06:43:00,
2013-02-01 01:48:00,23.7,12.9,29.63,East,90,0.0,19.0,63,0.00,,,0.00,WUHU21623XXSP,2013-02-01 06:48:00,
2013-02-01 01:53:00,23.7,12.5,29.64,SSE,157,0.0,8.9,62,0.00,,,0.00,WUHU21623XXSP,2013-02-01 06:53:00,
2013-02-01 01:58:00,23.9,12.7,29.64,South,180,4.7,13.0,62,0.00,,,0.00,WUHU21623XXSP,2013-02-01 06:58:00,
2013-02-01 02:03:00,24.1,12.5,29.64,SE,135,0.0,13.0,61,0.00,,,0.00,WUHU21623XXSP,2013-02-01 07:03:00,
2013-02-01 02:08:00,24.1,12.2,29.64,SSE,157,13.6,15.0,60,0.00,,,0.00,WUHU21623XXSP,2013-02-01 07:08:00,
2013-02-01 02:13:00,24.1,11.8,29.64,ESE,112,0.0,21.5,59,0.00,,,0.00,WUHU21623XXSP,2013-02-01 07:13:00,
2013-02-01 02:18:00,23.9,11.6,29.64,South,180,0.0,21.5,59,0.00,,,0.00,WUHU21623XXSP,2013-02-01 07:18:00,
2013-02-01 02:23:00,23.7,11.4,29.65,ESE,112,0.0,6.9,59,0.00,,,0.00,WUHU21623XXSP,2013-02-01 07:23:00,
2013-02-01 02:28:00,23.7,11.4,29.64,SE,135,2.7,12.3,59,0.00,,,0.00,WUHU21623XXSP,2013-02-01 07:28:00,
2013-02-01 02:33:00,23.7,11.0,29.65,WSW,247,1.8,16.3,58,0.00,,,0.00,WUHU21623XXSP,2013-02-01 07:33:00,
2013-02-01 02:38:00,23.7,11.0,29.65,South,180,3.6,16.3,58,0.00,,,0.00,WUHU21623XXSP,2013-02-01 07:38:00,
2013-02-01 02:43:00,23.7,11.0,29.65,SSE,157,0.0,13.9,58,0.00,,,0.00,WUHU21623XXSP,2013-02-01 07:43:00,
2013-02-01 02:48:00,23.7,10.6,29.66,NNW,337,2.5,13.0,57,0.00,,,0.00,WUHU21623XXSP,2013-02-01 07:48:00,
2013-02-01 02:52:00,23.5,10.5,29.65,NNW,337,1.8,13.6,57,0.00,,,0.00,WUHU21623XXSP,2013-02-01 07:52:00,
2013-02-01 02:58:00,23.5,10.5,29.65,ENE,67,0.0,13.6,57,0.00,,,0.00,WUHU21623XXSP,2013-02-01 07:58:00,
2013-02-01 03:03:00,23.5,10.8,29.65,SSE,157,0.2,14.8,58,0.00,,,0.00,WUHU21623XXSP,2013-02-01 08:03:00,
2013-02-01 03:08:00,23.5,10.8,29.65,SSW,202,5.1,14.8,58,0.00,,,0.00,WUHU21623XXSP,2013-02-01 08:08:00,
2013-02-01 03:13:00,23.5,10.5,29.66,SE,135,6.5,18.3,57,0.00,,,0.00,WUHU21623XXSP,2013-02-01 08:13:00,
2013-02-01 03:18:00,23.5,10.8,29.66,WNW,292,2.7,18.3,58,0.00,,,0.00,WUHU21623XXSP,2013-02-01 08:18:00,
2013-02-01 03:23:00,23.5,11.2,29.66,SSE,157,4.7,9.6,59,0.00,,,0.00,WUHU21623XXSP,2013-02-01 08:23:00,
2013-02-01 03:28:00,23.5,11.7,29.66,SSW,202,0.0,10.7,60,0.00,,,0.00,WUHU21623XXSP,2013-02-01 08:28:00,
2013-02-01 03:33:00,23.5,12.0,29.66,WNW,292,1.8,12.5,61,0.00,,,0.00,WUHU21623XXSP,2013-02-01 08:33:00,
2013-02-01 03:38:00,23.4,11.8,29.66,South,180,11.9,15.2,61,0.00,,,0.00,WUHU21623XXSP,2013-02-01 08:38:00,
2013-02-01 03:43:00,23.4,12.2,29.66,SW,225,0.0,15.2,62,0.00,,,0.00,WUHU21623XXSP,2013-02-01 08:43:00,
2013-02-01 03:48:00,23.4,12.2,29.66,SSE,157,0.0,11.0,62,0.00,,,0.00,WUHU21623XXSP,2013-02-01 08:48:00,
2013-02-01 03:53:00,23.4,12.2,29.67,ESE,112,0.0,11.2,62,0.00,,,0.00,WUHU21623XXSP,2013-02-01 08:53:00,
2013-02-01 03:58:00,23.2,12.0,29.67,West,270,1.6,14.5,62,0.00,,,0.00,WUHU21623XXSP,2013-02-01 08:58:00,
2013-02-01 04:03:00,23.2,12.0,29.67,SSE,157,4.9,14.5,62,0.00,,,0.00,WUHU21623XXSP,2013-02-01 09:03:00,
2013-02-01 04:08:00,23.2,12.7,29.68,SSW,202,4.0,13.9,64,0.00,,,0.00,WUHU21623XXSP,2013-02-01 09:08:00,
2013-02-01 04:13:00,22.8,13.1,29.68,NW,315,0.0,5.8,66,0.00,,,0.00,WUHU21623XXSP,2013-02-01 09:13:00,
2013-02-01 04:18:00,22.1,14.1,29.68,NNW,337,0.0,4.0,71,0.00,,,0.00,WUHU21623XXSP,2013-02-01 09:18:00,
2013-02-01 04:23:00,21.7,14.4,29.68,NNW,337,0.0,4.0,73,0.00,,,0.00,WUHU21623XXSP,2013-02-01 09:23:00,
2013-02-01 04:28:00,21.4,14.6,29.68,WNW,292,0.0,0.0,75,0.00,,,0.00,WUHU21623XXSP,2013-02-01 09:28:00,
2013-02-01 04:33:00,21.0,14.6,29.69,SSE,157,0.0,3.4,76,0.00,,,0.00,WUHU21623XXSP,2013-02-01 09:33:00,
2013-02-01 04:38:00,21.0,15.2,29.69,SW,225,0.0,3.4,78,0.00,,,0.00,WUHU21623XXSP,2013-02-01 09:38:00,
2013-02-01 04:43:00,20.8,15.0,29.69,WSW,247,0.0,4.7,78,0.00,,,0.00,WUHU21623XXSP,2013-02-01 09:43:00,
2013-02-01 04:48:00,20.5,15.0,29.69,West,270,0.0,5.6,79,0.00,,,0.00,WUHU21623XXSP,2013-02-01 09:48:00,
2013-02-01 04:53:00,20.3,14.8,29.69,West,270,0.0,5.6,79,0.00,,,0.00,WUHU21623XXSP,2013-02-01 09:53:00,
2013-02-01 04:58:00,20.1,14.9,29.69,NW,315,0.0,3.6,80,0.00,,,0.00,WUHU21623XXSP,2013-02-01 09:58:00,
2013-02-01 05:03:00,20.1,14.9,29.69,NW,315,0.0,0.0,80,0.00,,,0.00,WUHU21623XXSP,2013-02-01 10:03:00,
2013-02-01 05:08:00,20.1,15.2,29.70,SW,225,0.0,0.0,81,0.00,,,0.00,WUHU21623XXSP,2013-02-01 10:08:00,
2013-02-01 05:13:00,19.9,15.0,29.69,North,0,0.0,0.0,81,0.00,,,0.00,WUHU21623XXSP,2013-02-01 10:13:00,
2013-02-01 05:18:00,19.9,15.0,29.70,West,270,0.0,0.0,81,0.00,,,0.00,WUHU21623XXSP,2013-02-01 10:18:00,
2013-02-01 05:23:00,19.8,14.5,29.70,WNW,292,0.0,6.9,80,0.00,,,0.00,WUHU21623XXSP,2013-02-01 10:23:00,
2013-02-01 05:28:00,19.9,15.0,29.70,NE,45,0.0,6.9,81,0.00,,,0.00,WUHU21623XXSP,2013-02-01 10:28:00,
2013-02-01 05:33:00,19.6,14.6,29.70,SW,225,0.0,3.6,81,0.00,,,0.00,WUHU21623XXSP,2013-02-01 10:33:00,
2013-02-01 05:38:00,19.6,14.6,29.70,SW,225,0.0,1.3,81,0.00,,,0.00,WUHU21623XXSP,2013-02-01 10:38:00,
2013-02-01 05:43:00,19.6,14.6,29.70,SSE,157,0.0,0.0,81,0.00,,,0.00,WUHU21623XXSP,2013-02-01 10:43:00,
2013-02-01 05:48:00,19.6,14.6,29.71,WSW,247,0.0,0.0,81,0.00,,,0.00,WUHU21623XXSP,2013-02-01 10:48:00,
2013-02-01 05:53:00,19.6,14.6,29.71,West,270,0.0,0.0,81,0.00,,,0.00,WUHU21623XXSP,2013-02-01 10:53:00,
2013-02-01 05:58:00,19.6,14.6,29.71,ESE,112,0.0,0.0,81,0.00,,,0.00,WUHU21623XXSP,2013-02-01 10:58:00,
2013-02-01 06:03:00,19.9,15.3,29.71,South,180,0.0,0.0,82,0.00,,,0.00,WUHU21623XXSP,2013-02-01 11:03:00,
2013-02-01 06:08:00,19.9,15.0,29.71,SE,135,0.0,0.0,81,0.00,,,0.00,WUHU21623XXSP,2013-02-01 11:08:00,
2013-02-01 06:13:00,19.6,14.6,29.72,WSW,247,0.0,0.0,81,0.00,,,0.00,WUHU21623XXSP,2013-02-01 11:13:00,
2013-02-01 06:18:00,19.6,14.1,29.72,WSW,247,0.0,0.0,79,0.00,,,0.00,WUHU21623XXSP,2013-02-01 11:18:00,
2013-02-01 06:23:00,19.6,13.7,29.73,WSW,247,0.0,0.0,78,0.00,,,0.00,WUHU21623XXSP,2013-02-01 11:23:00,
2013-02-01 06:28:00,19.6,13.4,29.72,SSW,202,0.0,0.0,77,0.00,,,0.00,WUHU21623XXSP,2013-02-01 11:28:00,
2013-02-01 06:33:00,19.6,13.4,29.73,NNE,22,0.0,0.0,77,0.00,,,0.00,WUHU21623XXSP,2013-02-01 11:33:00,
2013-02-01 06:38:00,19.2,12.8,29.73,ESE,112,0.0,0.0,76,0.00,,,0.00,WUHU21623XXSP,2013-02-01 11:38:00,
2013-02-01 06:43:00,19.0,12.6,29.74,West,270,0.0,0.0,76,0.00,,,0.00,WUHU21623XXSP,2013-02-01 11:43:00,
2013-02-01 06:48:00,19.0,12.6,29.74,West,270,0.0,0.0,76,0.00,,,0.00,WUHU21623XXSP,2013-02-01 11:48:00,
2013-02-01 06:53:00,18.9,12.4,29.74,SSE,157,0.0,0.0,76,0.00,,,0.00,WUHU21623XXSP,2013-02-01 11:53:00,
2013-02-01 06:58:00,18.5,12.1,29.74,NE,45,0.0,0.0,76,0.00,,,0.00,WUHU21623XXSP,2013-02-01 11:58:00,
2013-02-01 07:03:00,18.7,12.0,29.74,SSE,157,0.0,0.0,75,0.00,,,0.00,WUHU21623XXSP,2013-02-01 12:03:00,
2013-02-01 07:08:00,18.7,12.0,29.74,ESE,112,0.0,0.0,75,0.00,,,0.00,WUHU21623XXSP,2013-02-01 12:08:00,
2013-02-01 07:13:00,18.3,11.9,29.74,South,180,0.0,0.0,76,0.00,,,0.00,WUHU21623XXSP,2013-02-01 12:13:00,
2013-02-01 07:18:00,18.3,11.9,29.74,SE,135,0.0,0.0,76,0.00,,,0.00,WUHU21623XXSP,2013-02-01 12:18:00,
2013-02-01 07:23:00,18.3,11.9,29.74,South,180,0.0,0.0,76,0.00,,,0.00,WUHU21623XXSP,2013-02-01 12:23:00,
2013-02-01 07:28:00,18.3,11.6,29.75,SSE,157,4.7,4.7,75,0.00,,,0.00,WUHU21623XXSP,2013-02-01 12:28:00,
2013-02-01 07:33:00,18.3,11.6,29.75,SSW,202,4.9,7.8,75,0.00,,,0.00,WUHU21623XXSP,2013-02-01 12:33:00,
2013-02-01 07:38:00,18.5,11.5,29.75,SE,135,1.1,10.5,74,0.00,,,0.00,WUHU21623XXSP,2013-02-01 12:38:00,
2013-02-01 07:43:00,18.7,11.7,29.75,SSW,202,0.0,10.5,74,0.00,,,0.00,WUHU21623XXSP,2013-02-01 12:43:00,
2013-02-01 07:48:00,18.7,11.7,29.76,SSE,157,0.0,13.6,74,0.00,,,0.00,WUHU21623XXSP,2013-02-01 12:48:00,
2013-02-01 07:53:00,18.9,11.8,29.76,SSE,157,0.0,13.6,74,0.00,,,0.00,WUHU21623XXSP,2013-02-01 12:53:00,
2013-02-01 07:58:00,19.0,12.0,29.76,SSE,157,0.0,14.1,74,0.00,,,0.00,WUHU21623XXSP,2013-02-01 12:58:00,
2013-02-01 08:03:00,19.0,12.0,29.77,NNW,337,0.0,14.1,74,0.00,,,0.00,WUHU21623XXSP,2013-02-01 13:03:00,
2013-02-01 08:08:00,19.2,11.9,29.77,WSW,247,6.0,9.8,73,0.00,,,0.00,WUHU21623XXSP,2013-02-01 13:08:00,
2013-02-01 08:13:00,19.6,11.6,29.77,SW,225,0.0,9.8,71,0.00,,,0.00,WUHU21623XXSP,2013-02-01 13:13:00,
2013-02-01 08:18:00,19.6,11.3,29.77,West,270,0.0,8.1,70,0.00,,,0.00,WUHU21623XXSP,2013-02-01 13:18:00,
2013-02-01 08:23:00,19.6,11.0,29.77,South,180,7.4,13.6,69,0.00,,,0.00,WUHU21623XXSP,2013-02-01 13:23:00,
2013-02-01 08:28:00,19.9,11.3,29.78,South,180,7.6,13.6,69,0.00,,,0.00,WUHU21623XXSP,2013-02-01 13:28:00,
2013-02-01 08:33:00,20.1,11.2,29.78,South,180,4.3,11.0,68,0.00,,,0.00,WUHU21623XXSP,2013-02-01 13:33:00,
2013-02-01 08:38:00,20.3,11.3,29.78,SSE,157,3.4,11.0,68,0.00,,,0.00,WUHU21623XXSP,2013-02-01 13:38:00,
2013-02-01 08:43:00,20.8,11.9,29.79,South,180,0.0,10.3,68,0.00,,,0.00,WUHU21623XXSP,2013-02-01 13:43:00,
2013-02-01 08:48:00,21.0,11.7,29.79,SW,225,0.0,13.6,67,0.00,,,0.00,WUHU21623XXSP,2013-02-01 13:48:00,
2013-02-01 08:53:00,21.4,11.7,29.79,SSE,157,10.3,13.6,66,0.00,,,0.00,WUHU21623XXSP,2013-02-01 13:53:00,
2013-02-01 08:58:00,21.6,11.9,29.79,WNW,292,0.0,14.8,66,0.00,,,0.00,WUHU21623XXSP,2013-02-01 13:58:00,
2013-02-01 09:03:00,21.7,12.1,29.79,WSW,247,0.0,14.8,66,0.00,,,0.00,WUHU21623XXSP,2013-02-01 14:03:00,
2013-02-01 09:08:00,21.7,12.1,29.79,WSW,247,0.0,14.3,66,0.00,,,0.00,WUHU21623XXSP,2013-02-01 14:08:00,
2013-02-01 09:13:00,21.9,12.2,29.79,SSE,157,3.4,14.3,66,0.00,,,0.00,WUHU21623XXSP,2013-02-01 14:13:00,
2013-02-01 09:18:00,22.3,12.2,29.79,ESE,112,0.0,7.6,65,0.00,,,0.00,WUHU21623XXSP,2013-02-01 14:18:00,
2013-02-01 09:23:00,22.6,12.2,29.80,SSW,202,1.6,9.2,64,0.00,,,0.00,WUHU21623XXSP,2013-02-01 14:23:00,
2013-02-01 09:28:00,23.0,12.9,29.80,SSW,202,4.3,17.2,65,0.00,,,0.00,WUHU21623XXSP,2013-02-01 14:28:00,
2013-02-01 09:33:00,23.4,12.5,29.81,West,270,4.7,17.2,63,0.00,,,0.00,WUHU21623XXSP,2013-02-01 14:33:00,
2013-02-01 09:38:00,23.5,13.4,29.81,SSE,157,0.0,8.5,65,0.00,,,0.00,WUHU21623XXSP,2013-02-01 14:38:00,
2013-02-01 09:43:00,23.5,12.4,29.80,NNW,337,0.0,7.6,62,0.00,,,0.00,WUHU21623XXSP,2013-02-01 14:43:00,
2013-02-01 09:48:00,23.2,11.6,29.82,SW,225,6.9,17.4,61,0.00,,,0.00,WUHU21623XXSP,2013-02-01 14:48:00,
2013-02-01 09:53:00,22.6,10.8,29.82,SSW,202,0.0,17.4,60,0.00,,,0.00,WUHU21623XXSP,2013-02-01 14:53:00,
2013-02-01 09:58:00,22.6,10.8,29.82,SSW,202,0.0,15.9,60,0.00,,,0.00,WUHU21623XXSP,2013-02-01 14:58:00,
2013-02-01 10:03:00,22.8,11.0,29.83,SSE,157,2.9,15.9,60,0.00,,,0.00,WUHU21623XXSP,2013-02-01 15:03:00,
2013-02-01 10:08:00,22.8,11.3,29.82,SSE,157,0.0,12.1,61,0.00,,,0.00,WUHU21623XXSP,2013-02-01 15:08:00,
2013-02-01 10:13:00,23.0,10.7,29.83,SE,135,0.0,11.4,59,0.00,,,0.00,WUHU21623XXSP,2013-02-01 15:13:00,
2013-02-01 10:18:00,23.4,11.5,29.84,WSW,247,0.4,17.2,60,0.00,,,0.00,WUHU21623XXSP,2013-02-01 15:18:00,
2013-02-01 10:23:00,23.4,11.8,29.84,WSW,247,0.0,17.2,61,0.00,,,0.00,WUHU21623XXSP,2013-02-01 15:23:00,
2013-02-01 10:28:00,23.5,11.7,29.84,West,270,0.0,6.7,60,0.00,,,0.00,WUHU21623XXSP,2013-02-01 15:28:00,
2013-02-01 10:33:00,23.4,11.5,29.84,WNW,292,6.0,7.6,60,0.00,,,0.00,WUHU21623XXSP,2013-02-01 15:33:00,
2013-02-01 10:38:00,23.0,10.3,29.84,NW,315,5.4,11.0,58,0.00,,,0.00,WUHU21623XXSP,2013-02-01 15:38:00,
2013-02-01 10:43:00,23.4,11.8,29.84,SW,225,10.7,12.3,61,0.00,,,0.00,WUHU21623XXSP,2013-02-01 15:43:00,
2013-02-01 10:48:00,23.0,10.3,29.84,WNW,292,0.0,12.3,58,0.00,,,0.00,WUHU21623XXSP,2013-02-01 15:48:00,
2013-02-01 10:54:00,23.0,10.7,29.84,NW,315,5.4,10.3,59,0.00,,,0.00,WUHU21623XXSP,2013-02-01 15:54:00,
2013-02-01 10:58:00,22.8,11.0,29.84,WSW,247,5.6,10.3,60,0.00,,,0.00,WUHU21623XXSP,2013-02-01 15:58:00,
2013-02-01 11:03:00,23.4,11.8,29.84,WNW,292,0.0,6.3,61,0.00,,,0.00,WUHU21623XXSP,2013-02-01 16:03:00,
2013-02-01 11:08:00,23.7,12.2,29.84,WNW,292,1.3,4.3,61,0.00,,,0.00,WUHU21623XXSP,2013-02-01 16:08:00,
2013-02-01 11:13:00,23.5,11.2,29.85,NW,315,6.7,7.6,59,0.00,,,0.00,WUHU21623XXSP,2013-02-01 16:13:00,
2013-02-01 11:18:00,23.4,11.1,29.85,WNW,292,4.0,8.1,59,0.00,,,0.00,WUHU21623XXSP,2013-02-01 16:18:00,
2013-02-01 11:23:00,23.0,10.7,29.85,West,270,0.0,10.1,59,0.00,,,0.00,WUHU21623XXSP,2013-02-01 16:23:00,
2013-02-01 11:28:00,23.5,11.8,29.85,West,270,0.0,10.1,61,0.00,,,0.00,WUHU21623XXSP,2013-02-01 16:28:00,
2013-02-01 11:33:00,23.5,11.2,29.85,WSW,247,0.0,4.3,59,0.00,,,0.00,WUHU21623XXSP,2013-02-01 16:33:00,
2013-02-01 11:38:00,23.5,11.2,29.85,WNW,292,0.0,11.0,59,0.00,,,0.00,WUHU21623XXSP,2013-02-01 16:38:00,
2013-02-01 11:43:00,23.5,11.7,29.85,West,270,3.6,11.2,60,0.00,,,0.00,WUHU21623XXSP,2013-02-01 16:43:00,
2013-02-01 11:48:00,23.7,11.8,29.84,SSW,202,0.0,11.2,60,0.00,,,0.00,WUHU21623XXSP,2013-02-01 16:48:00,
2013-02-01 11:53:00,23.9,11.6,29.84,SSW,202,0.0,8.3,59,0.00,,,0.00,WUHU21623XXSP,2013-02-01 16:53:00,
2013-02-01 11:58:00,23.7,10.6,29.84,NW,315,1.3,6.3,57,0.00,,,0.00,WUHU21623XXSP,2013-02-01 16:58:00,
2013-02-01 12:03:00,24.1,11.0,29.84,SW,225,4.7,8.7,57,0.00,,,0.00,WUHU21623XXSP,2013-02-01 17:03:00,
2013-02-01 12:08:00,24.6,11.1,29.84,South,180,2.7,8.9,56,0.00,,,0.00,WUHU21623XXSP,2013-02-01 17:08:00,
2013-02-01 12:13:00,25.2,11.6,29.84,South,180,2.9,10.7,56,0.00,,,0.00,WUHU21623XXSP,2013-02-01 17:13:00,
2013-02-01 12:18:00,25.5,10.7,29.84,NW,315,0.0,10.7,53,0.00,,,0.00,WUHU21623XXSP,2013-02-01 17:18:00,
2013-02-01 12:23:00,25.2,11.2,29.84,NNW,337,2.2,10.3,55,0.00,,,0.00,WUHU21623XXSP,2013-02-01 17:23:00,
2013-02-01 12:28:00,24.4,10.9,29.84,West,270,7.4,12.5,56,0.00,,,0.00,WUHU21623XXSP,2013-02-01 17:28:00,
2013-02-01 12:33:00,23.7,10.6,29.84,West,270,0.0,12.5,57,0.00,,,0.00,WUHU21623XXSP,2013-02-01 17:33:00,
2013-02-01 12:38:00,24.4,12.1,29.84,SW,225,5.1,8.7,59,0.00,,,0.00,WUHU21623XXSP,2013-02-01 17:38:00,
2013-02-01 12:43:00,24.4,10.9,29.84,WSW,247,7.4,10.3,56,0.00,,,0.00,WUHU21623XXSP,2013-02-01 17:43:00,
2013-02-01 12:48:00,24.4,10.1,29.84,WSW,247,0.0,10.3,54,0.00,,,0.00,WUHU21623XXSP,2013-02-01 17:48:00,
2013-02-01 12:53:00,24.4,9.7,29.84,SSE,157,5.6,9.4,53,0.00,,,0.00,WUHU21623XXSP,2013-02-01 17:53:00,
2013-02-01 12:58:00,25.0,10.2,29.83,WNW,292,4.5,16.1,53,0.00,,,0.00,WUHU21623XXSP,2013-02-01 17:58:00,
2013-02-01 13:03:00,25.3,10.1,29.84,NW,315,0.0,16.1,52,0.00,,,0.00,WUHU21623XXSP,2013-02-01 18:03:00,
2013-02-01 13:08:00,25.3,10.9,29.83,SSW,202,0.0,15.0,54,0.00,,,0.00,WUHU21623XXSP,2013-02-01 18:08:00,
2013-02-01 13:13:00,25.0,10.2,29.83,WSW,247,1.3,11.0,53,0.00,,,0.00,WUHU21623XXSP,2013-02-01 18:13:00,
2013-02-01 13:18:00,25.0,9.8,29.83,WSW,247,1.8,12.3,52,0.00,,,0.00,WUHU21623XXSP,2013-02-01 18:18:00,
2013-02-01 13:23:00,24.6,8.6,29.83,West,270,2.5,12.8,50,0.00,,,0.00,WUHU21623XXSP,2013-02-01 18:23:00,
2013-02-01 13:28:00,23.9,8.0,29.84,NW,315,0.0,12.8,50,0.00,,,0.00,WUHU21623XXSP,2013-02-01 18:28:00,
2013-02-01 13:33:00,23.2,7.7,29.84,WNW,292,0.0,11.0,51,0.00,,,0.00,WUHU21623XXSP,2013-02-01 18:33:00,
2013-02-01 13:38:00,23.5,8.4,29.84,NW,315,4.9,11.9,52,0.00,,,0.00,WUHU21623XXSP,2013-02-01 18:38:00,
2013-02-01 13:43:00,24.1,8.9,29.83,SSE,157,15.9,15.9,52,0.00,,,0.00,WUHU21623XXSP,2013-02-01 18:43:00,
2013-02-01 13:48:00,23.9,8.8,29.84,NW,315,2.9,15.9,52,0.00,,,0.00,WUHU21623XXSP,2013-02-01 18:48:00,
2013-02-01 13:53:00,23.7,9.0,29.84,South,180,0.0,20.8,53,0.00,,,0.00,WUHU21623XXSP,2013-02-01 18:53:00,
2013-02-01 13:58:00,24.1,9.3,29.84,West,270,0.0,20.8,53,0.00,,,0.00,WUHU21623XXSP,2013-02-01 18:58:00,
2013-02-01 14:03:00,24.1,9.8,29.84,WSW,247,2.9,13.6,54,0.00,,,0.00,WUHU21623XXSP,2013-02-01 19:03:00,
2013-02-01 14:08:00,24.4,9.3,29.84,NW,315,0.0,7.8,52,0.00,,,0.00,WUHU21623XXSP,2013-02-01 19:08:00,
2013-02-01 14:13:00,24.8,9.6,29.85,NNW,337,0.0,7.4,52,0.00,,,0.00,WUHU21623XXSP,2013-02-01 19:13:00,
2013-02-01 14:18:00,25.0,9.4,29.84,WNW,292,8.5,10.5,51,0.00,,,0.00,WUHU21623XXSP,2013-02-01 19:18:00,
2013-02-01 14:23:00,25.0,9.8,29.85,SW,225,0.0,10.5,52,0.00,,,0.00,WUHU21623XXSP,2013-02-01 19:23:00,
2013-02-01 14:28:00,24.6,9.0,29.85,NNW,337,0.0,11.6,51,0.00,,,0.00,WUHU21623XXSP,2013-02-01 19:28:00,
2013-02-01 14:33:00,23.7,8.6,29.85,West,270,0.0,11.6,52,0.00,,,0.00,WUHU21623XXSP,2013-02-01 19:33:00,
2013-02-01 14:38:00,23.4,9.1,29.86,WNW,292,4.9,11.4,54,0.00,,,0.00,WUHU21623XXSP,2013-02-01 19:38:00,
2013-02-01 14:43:00,22.8,8.6,29.86,WSW,247,0.0,8.3,54,0.00,,,0.00,WUHU21623XXSP,2013-02-01 19:43:00,
2013-02-01 14:48:00,22.5,8.2,29.85,SSE,157,0.0,8.9,54,0.00,,,0.00,WUHU21623XXSP,2013-02-01 19:48:00,
2013-02-01 14:53:00,21.9,7.7,29.86,NNW,337,0.0,8.9,54,0.00,,,0.00,WUHU21623XXSP,2013-02-01 19:53:00,
2013-02-01 14:58:00,21.9,7.7,29.86,West,270,2.9,6.9,54,0.00,,,0.00,WUHU21623XXSP,2013-02-01 19:58:00,
2013-02-01 15:03:00,21.9,7.7,29.86,WSW,247,0.0,8.3,54,0.00,,,0.00,WUHU21623XXSP,2013-02-01 20:03:00,
2013-02-01 15:08:00,21.9,7.7,29.87,WNW,292,0.0,12.5,54,0.00,,,0.00,WUHU21623XXSP,2013-02-01 20:08:00,
2013-02-01 15:13:00,22.3,8.0,29.87,North,0,5.8,15.9,54,0.00,,,0.00,WUHU21623XXSP,2013-02-01 20:13:00,
2013-02-01 15:18:00,22.5,7.8,29.87,WSW,247,3.4,15.9,53,0.00,,,0.00,WUHU21623XXSP,2013-02-01 20:18:00,
2013-02-01 15:23:00,22.6,8.4,29.87,West,270,0.0,11.2,54,0.00,,,0.00,WUHU21623XXSP,2013-02-01 20:23:00,
2013-02-01 15:28:00,22.8,8.6,29.87,SSW,202,0.0,11.2,54,0.00,,,0.00,WUHU21623XXSP,2013-02-01 20:28:00,
2013-02-01 15:33:00,22.8,8.2,29.87,WSW,247,0.0,8.5,53,0.00,,,0.00,WUHU21623XXSP,2013-02-01 20:33:00,
2013-02-01 15:38:00,22.8,7.8,29.87,WNW,292,0.0,8.5,52,0.00,,,0.00,WUHU21623XXSP,2013-02-01 20:38:00,
2013-02-01 15:43:00,22.8,7.4,29.88,NW,315,5.6,7.8,51,0.00,,,0.00,WUHU21623XXSP,2013-02-01 20:43:00,
2013-02-01 15:48:00,22.8,7.8,29.88,South,180,4.9,7.6,52,0.00,,,0.00,WUHU21623XXSP,2013-02-01 20:48:00,
2013-02-01 15:53:00,22.5,7.8,29.88,West,270,0.0,9.2,53,0.00,,,0.00,WUHU21623XXSP,2013-02-01 20:53:00,
2013-02-01 15:58:00,22.5,8.2,29.89,NW,315,0.0,9.2,54,0.00,,,0.00,WUHU21623XXSP,2013-02-01 20:58:00,
2013-02-01 16:03:00,22.3,8.0,29.89,WSW,247,0.0,4.9,54,0.00,,,0.00,WUHU21623XXSP,2013-02-01 21:03:00,
2013-02-01 16:08:00,22.1,7.5,29.90,West,270,3.4,4.5,53,0.00,,,0.00,WUHU21623XXSP,2013-02-01 21:08:00,
2013-02-01 16:13:00,21.7,7.1,29.90,WSW,247,2.7,8.3,53,0.00,,,0.00,WUHU21623XXSP,2013-02-01 21:13:00,
2013-02-01 16:18:00,21.4,6.8,29.90,WNW,292,3.4,9.6,53,0.00,,,0.00,WUHU21623XXSP,2013-02-01 21:18:00,
2013-02-01 16:23:00,21.0,6.4,29.90,West,270,0.0,11.0,53,0.00,,,0.00,WUHU21623XXSP,2013-02-01 21:23:00,
2013-02-01 16:28:00,20.8,7.1,29.91,WNW,292,5.4,11.4,55,0.00,,,0.00,WUHU21623XXSP,2013-02-01 21:28:00,
2013-02-01 16:33:00,20.5,6.3,29.92,West,270,0.0,11.4,54,0.00,,,0.00,WUHU21623XXSP,2013-02-01 21:33:00,
2013-02-01 16:38:00,20.5,7.1,29.92,NNW,337,6.9,11.4,56,0.00,,,0.00,WUHU21623XXSP,2013-02-01 21:38:00,
2013-02-01 16:43:00,20.1,6.8,29.92,WNW,292,1.6,11.4,56,0.00,,,0.00,WUHU21623XXSP,2013-02-01 21:43:00,
2013-02-01 16:48:00,19.9,6.6,29.93,WNW,292,2.2,10.5,56,0.00,,,0.00,WUHU21623XXSP,2013-02-01 21:48:00,
2013-02-01 16:53:00,19.8,6.5,29.94,NW,315,0.0,10.5,56,0.00,,,0.00,WUHU21623XXSP,2013-02-01 21:53:00,
2013-02-01 16:58:00,19.6,6.3,29.94,West,270,0.0,5.6,56,0.00,,,0.00,WUHU21623XXSP,2013-02-01 21:58:00,
2013-02-01 17:03:00,19.2,6.0,29.93,WSW,247,0.0,9.4,56,0.00,,,0.00,WUHU21623XXSP,2013-02-01 22:03:00,
2013-02-01 17:08:00,19.2,6.0,29.94,WNW,292,4.3,15.0,56,0.00,,,0.00,WUHU21623XXSP,2013-02-01 22:08:00,
2013-02-01 17:13:00,19.0,5.8,29.95,WSW,247,0.0,15.0,56,0.00,,,0.00,WUHU21623XXSP,2013-02-01 22:13:00,
2013-02-01 17:18:00,18.9,6.0,29.95,WNW,292,6.0,6.3,57,0.00,,,0.00,WUHU21623XXSP,2013-02-01 22:18:00,
2013-02-01 17:23:00,18.7,6.3,29.95,West,270,0.0,6.0,58,0.00,,,0.00,WUHU21623XXSP,2013-02-01 22:23:00,
2013-02-01 17:28:00,18.5,5.3,29.96,WSW,247,0.0,6.9,56,0.00,,,0.00,WUHU21623XXSP,2013-02-01 22:28:00,
2013-02-01 17:33:00,18.3,5.9,29.96,West,270,1.8,6.9,58,0.00,,,0.00,WUHU21623XXSP,2013-02-01 22:33:00,
2013-02-01 17:38:00,18.5,6.1,29.97,WNW,292,0.0,6.0,58,0.00,,,0.00,WUHU21623XXSP,2013-02-01 22:38:00,
2013-02-01 17:43:00,18.3,5.5,29.97,WSW,247,0.0,6.0,57,0.00,,,0.00,WUHU21623XXSP,2013-02-01 22:43:00,
2013-02-01 17:48:00,18.3,5.9,29.97,WSW,247,0.0,4.0,58,0.00,,,0.00,WUHU21623XXSP,2013-02-01 22:48:00,
2013-02-01 17:53:00,18.1,5.8,29.98,WSW,247,0.0,9.2,58,0.00,,,0.00,WUHU21623XXSP,2013-02-01 22:53:00,
2013-02-01 17:58:00,18.1,5.8,29.98,SW,225,0.0,9.2,58,0.00,,,0.00,WUHU21623XXSP,2013-02-01 22:58:00,
2013-02-01 18:03:00,18.0,5.6,29.98,West,270,2.7,4.9,58,0.00,,,0.00,WUHU21623XXSP,2013-02-01 23:03:00,
2013-02-01 18:08:00,18.1,6.2,29.98,North,0,0.0,5.8,59,0.00,,,0.00,WUHU21623XXSP,2013-02-01 23:08:00,
2013-02-01 18:13:00,18.0,6.0,29.99,WSW,247,0.0,5.8,59,0.00,,,0.00,WUHU21623XXSP,2013-02-01 23:13:00,
2013-02-01 18:18:00,18.0,6.0,29.99,West,270,0.0,3.1,59,0.00,,,0.00,WUHU21623XXSP,2013-02-01 23:18:00,
2013-02-01 18:23:00,17.8,5.4,29.99,WNW,292,0.0,3.1,58,0.00,,,0.00,WUHU21623XXSP,2013-02-01 23:23:00,
2013-02-01 18:28:00,17.8,5.4,30.00,WNW,292,0.0,2.5,58,0.00,,,0.00,WUHU21623XXSP,2013-02-01 23:28:00,
2013-02-01 18:33:00,17.4,5.1,30.00,WNW,292,2.5,3.1,58,0.00,,,0.00,WUHU21623XXSP,2013-02-01 23:33:00,
2013-02-01 18:39:00,17.8,5.8,30.00,WSW,247,0.0,4.0,59,0.00,,,0.00,WUHU21623XXSP,2013-02-01 23:39:00,
2013-02-01 18:44:00,17.8,5.4,30.01,SSE,157,4.5,11.2,58,0.00,,,0.00,WUHU21623XXSP,2013-02-01 23:44:00,
2013-02-01 18:49:00,17.8,5.4,30.01,NW,315,0.0,11.2,58,0.00,,,0.00,WUHU21623XXSP,2013-02-01 23:49:00,
2013-02-01 18:54:00,17.8,5.8,30.01,East,90,0.0,5.6,59,0.00,,,0.00,WUHU21623XXSP,2013-02-01 23:54:00,
2013-02-01 18:59:00,17.8,5.4,30.01,WNW,292,0.0,5.4,58,0.00,,,0.00,WUHU21623XXSP,2013-02-01 23:59:00,
2013-02-01 19:04:00,17.8,5.8,30.01,West,270,0.0,7.8,59,0.00,,,0.00,WUHU21623XXSP,2013-02-02 00:04:00,
2013-02-01 19:09:00,17.8,5.4,30.02,South,180,2.7,8.3,58,0.00,,,0.00,WUHU21623XXSP,2013-02-02 00:09:00,
2013-02-01 19:14:00,17.8,5.8,30.02,SW,225,0.0,8.3,59,0.00,,,0.00,WUHU21623XXSP,2013-02-02 00:14:00,
2013-02-01 19:19:00,17.8,5.4,30.02,NW,315,3.4,6.7,58,0.00,,,0.00,WUHU21623XXSP,2013-02-02 00:19:00,
2013-02-01 19:24:00,18.0,4.8,30.03,WNW,292,0.0,6.7,56,0.00,,,0.00,WUHU21623XXSP,2013-02-02 00:24:00,
2013-02-01 19:29:00,18.0,5.2,30.03,NNW,337,0.0,11.0,57,0.00,,,0.00,WUHU21623XXSP,2013-02-02 00:29:00,
2013-02-01 19:34:00,18.0,4.8,30.03,SW,225,4.0,11.0,56,0.00,,,0.00,WUHU21623XXSP,2013-02-02 00:34:00,
2013-02-01 19:39:00,18.0,4.4,30.03,SW,225,1.6,12.8,55,0.00,,,0.00,WUHU21623XXSP,2013-02-02 00:39:00,
2013-02-01 19:44:00,18.1,4.6,30.04,West,270,0.0,13.0,55,0.00,,,0.00,WUHU21623XXSP,2013-02-02 00:44:00,
2013-02-01 19:49:00,18.0,4.4,30.03,WSW,247,0.0,13.0,55,0.00,,,0.00,WUHU21623XXSP,2013-02-02 00:49:00,
2013-02-01 19:54:00,18.0,4.4,30.04,West,270,0.0,13.9,55,0.00,,,0.00,WUHU21623XXSP,2013-02-02 00:54:00,
2013-02-01 19:59:00,18.1,4.6,30.04,NW,315,2.9,13.9,55,0.00,,,0.00,WUHU21623XXSP,2013-02-02 00:59:00,
2013-02-01 20:04:00,18.0,4.4,30.05,WNW,292,0.0,10.7,55,0.00,,,0.00,WUHU21623XXSP,2013-02-02 01:04:00,
2013-02-01 20:09:00,18.1,4.6,30.04,SE,135,4.7,10.7,55,0.00,,,0.00,WUHU21623XXSP,2013-02-02 01:09:00,
2013-02-01 20:14:00,18.0,4.4,30.05,SW,225,0.0,8.1,55,0.00,,,0.00,WUHU21623XXSP,2013-02-02 01:14:00,
2013-02-01 20:19:00,18.0,5.2,30.05,NE,45,0.0,9.6,57,0.00,,,0.00,WUHU21623XXSP,2013-02-02 01:19:00,
2013-02-01 20:24:00,17.8,4.3,30.05,West,270,0.0,10.1,55,0.00,,,0.00,WUHU21623XXSP,2013-02-02 01:24:00,
2013-02-01 20:29:00,17.8,4.7,30.05,West,270,0.0,10.1,56,0.00,,,0.00,WUHU21623XXSP,2013-02-02 01:29:00,
2013-02-01 20:34:00,17.8,4.7,30.06,NNW,337,2.0,6.9,56,0.00,,,0.00,WUHU21623XXSP,2013-02-02 01:34:00,
2013-02-01 20:39:00,17.8,5.1,30.06,SSE,157,2.5,11.4,57,0.00,,,0.00,WUHU21623XXSP,2013-02-02 01:39:00,
2013-02-01 20:44:00,17.8,5.4,30.06,South,180,3.6,11.4,58,0.00,,,0.00,WUHU21623XXSP,2013-02-02 01:44:00,
2013-02-01 20:49:00,17.8,5.1,30.06,West,270,0.0,8.1,57,0.00,,,0.00,WUHU21623XXSP,2013-02-02 01:49:00,
2013-02-01 20:53:00,17.6,4.9,30.06,West,270,1.3,7.4,57,0.00,,,0.00,WUHU21623XXSP,2013-02-02 01:53:00,
2013-02-01 20:58:00,17.4,4.7,30.06,NNW,337,0.0,7.4,57,0.00,,,0.00,WUHU21623XXSP,2013-02-02 01:58:00,
2013-02-01 21:04:00,17.4,5.1,30.07,WSW,247,0.0,7.4,58,0.00,,,0.00,WUHU21623XXSP,2013-02-02 02:04:00,
2013-02-01 21:09:00,17.4,5.1,30.06,SW,225,0.0,5.6,58,0.00,,,0.00,WUHU21623XXSP,2013-02-02 02:09:00,
2013-02-01 21:13:00,17.2,4.9,30.07,SSW,202,0.0,8.1,58,0.00,,,0.00,WUHU21623XXSP,2013-02-02 02:13:00,
2013-02-01 21:18:00,17.2,4.9,30.07,SSW,202,0.0,8.1,58,0.00,,,0.00,WUHU21623XXSP,2013-02-02 02:18:00,
2013-02-01 21:24:00,17.1,5.1,30.07,SSW,202,0.0,7.4,59,0.00,,,0.00,WUHU21623XXSP,2013-02-02 02:24:00,
2013-02-01 21:28:00,16.9,4.6,30.07,WSW,247,0.0,7.4,58,0.00,,,0.00,WUHU21623XXSP,2013-02-02 02:28:00,
2013-02-01 21:33:00,16.9,4.6,30.07,SW,225,0.0,5.8,58,0.00,,,0.00,WUHU21623XXSP,2013-02-02 02:33:00,
2013-02-01 21:38:00,16.9,4.6,30.07,WSW,247,0.0,7.2,58,0.00,,,0.00,WUHU21623XXSP,2013-02-02 02:38:00,
2013-02-01 21:43:00,16.9,4.6,30.07,WNW,292,0.0,13.4,58,0.00,,,0.00,WUHU21623XXSP,2013-02-02 02:43:00,
2013-02-01 21:48:00,16.7,4.4,30.08,West,270,2.5,13.4,58,0.00,,,0.00,WUHU21623XXSP,2013-02-02 02:48:00,
2013-02-01 21:53:00,16.5,4.2,30.08,NW,315,0.0,11.0,58,0.00,,,0.00,WUHU21623XXSP,2013-02-02 02:53:00,
2013-02-01 21:58:00,16.3,3.7,30.08,SSW,202,5.1,8.1,57,0.00,,,0.00,WUHU21623XXSP,2013-02-02 02:58:00,
2013-02-01 22:03:00,16.3,3.7,30.08,WSW,247,0.0,8.1,57,0.00,,,0.00,WUHU21623XXSP,2013-02-02 03:03:00,
2013-02-01 22:08:00,16.0,3.3,30.08,West,270,2.2,10.1,57,0.00,,,0.00,WUHU21623XXSP,2013-02-02 03:08:00,
2013-02-01 22:13:00,16.0,3.7,30.08,SW,225,0.0,10.1,58,0.00,,,0.00,WUHU21623XXSP,2013-02-02 03:13:00,
2013-02-01 22:18:00,15.6,3.3,30.08,West,270,0.0,8.7,58,0.00,,,0.00,WUHU21623XXSP,2013-02-02 03:18:00,
2013-02-01 22:23:00,15.6,3.3,30.08,WNW,292,0.0,8.7,58,0.00,,,0.00,WUHU21623XXSP,2013-02-02 03:23:00,
2013-02-01 22:28:00,15.6,3.0,30.09,West,270,0.0,6.3,57,0.00,,,0.00,WUHU21623XXSP,2013-02-02 03:28:00,
2013-02-01 22:34:00,15.6,3.0,30.09,ENE,67,0.0,4.3,57,0.00,,,0.00,WUHU21623XXSP,2013-02-02 03:34:00,
2013-02-01 22:39:00,15.4,3.2,30.09,South,180,0.0,5.1,58,0.00,,,0.00,WUHU21623XXSP,2013-02-02 03:39:00,
2013-02-01 22:44:00,15.4,2.8,30.09,NW,315,0.0,5.1,57,0.00,,,0.00,WUHU21623XXSP,2013-02-02 03:44:00,
2013-02-01 22:49:00,15.4,2.8,30.09,West,270,4.0,9.2,57,0.00,,,0.00,WUHU21623XXSP,2013-02-02 03:49:00,
2013-02-01 22:54:00,15.4,2.8,30.09,West,270,0.0,9.2,57,0.00,,,0.00,WUHU21623XXSP,2013-02-02 03:54:00,
2013-02-01 22:59:00,15.4,2.8,30.10,WNW,292,0.0,6.0,57,0.00,,,0.00,WUHU21623XXSP,2013-02-02 03:59:00,
2013-02-01 23:04:00,15.3,2.6,30.10,WSW,247,3.1,8.9,57,0.00,,,0.00,WUHU21623XXSP,2013-02-02 04:04:00,
2013-02-01 23:09:00,15.3,2.6,30.10,WSW,247,0.0,8.9,57,0.00,,,0.00,WUHU21623XXSP,2013-02-02 04:09:00,
2013-02-01 23:14:00,15.3,3.0,30.10,WSW,247,0.0,12.8,58,0.00,,,0.00,WUHU21623XXSP,2013-02-02 04:14:00,
2013-02-01 23:19:00,15.3,3.0,30.10,West,270,0.0,12.8,58,0.00,,,0.00,WUHU21623XXSP,2013-02-02 04:19:00,
2013-02-01 23:24:00,15.3,3.0,30.10,West,270,0.0,2.0,58,0.00,,,0.00,WUHU21623XXSP,2013-02-02 04:24:00,
2013-02-01 23:29:00,15.1,2.9,30.10,WNW,292,0.0,4.9,58,0.00,,,0.00,WUHU21623XXSP,2013-02-02 04:29:00,
2013-02-01 23:34:00,15.1,3.2,30.10,SSE,157,0.0,9.2,59,0.00,,,0.00,WUHU21623XXSP,2013-02-02 04:34:00,
2013-02-01 23:39:00,15.1,3.2,30.11,WSW,247,0.0,9.2,59,0.00,,,0.00,WUHU21623XXSP,2013-02-02 04:39:00,
2013-02-01 23:44:00,14.9,2.7,30.10,SSE,157,0.0,4.5,58,0.00,,,0.00,WUHU21623XXSP,2013-02-02 04:44:00,
2013-02-01 23:49:00,14.9,3.1,30.11,SSW,202,0.0,4.0,59,0.00,,,0.00,WUHU21623XXSP,2013-02-02 04:49:00,
2013-02-01 23:54:00,14.7,2.9,30.11,NNE,22,0.0,6.7,59,0.00,,,0.00,WUHU21623XXSP,2013-02-02 04:54:00,
2013-02-01 23:59:00,14.7,2.5,30.11,SSE,157,0.0,9.2,58,0.00,,,0.00,WUHU21623XXSP,2013-02-02 04:59:00,